Regional Weather Roundup
Issued by NWS

Home | Current Version | Previous Version | Graphics & Text | Print | Product List | Glossary On
Versions: 1 2 3 4 5 6 7 8 9 10 11 12 13 14 15 16 17 18 19 20 21 22 23 24 25 26 27 28 29 30 31 32 33 34 35 36 37 38 39 40 41 42 43 44 45 46 47 48 49 50
000
ASUS43 KLOT 262302
RWRIL

ILLINOIS REGIONAL WEATHER ROUNDUP
NATIONAL WEATHER SERVICE CHICAGO/ROMEOVILLE IL
600 PM CDT TUE MAY 26 2015

NOTE: "FAIR" INDICATES FEW OR NO CLOUDS BELOW 12,000 FEET WITH NO
SIGNIFICANT WEATHER AND/OR OBSTRUCTIONS TO VISIBILITY.

* THESE STATIONS ARE NOT UNDER NWS QUALITY CONTROL. THEY ALSO MAY NOT
  REPORT WEATHER SUCH AS PRECIPITATION OR FOG.

ILZ001-002-007-009-015-016-024-270000-
NORTHWEST ILLINOIS

CITY           SKY/WX    TMP DP  RH WIND       PRES   REMARKS
MOLINE         SUNNY     75  59  57 W17G24    29.78S
STERLING*      MOSUNNY  N/A N/A N/A W22       29.77S
$$

ILZ003-004-008-010-011-017-018-270000-
NORTH CENTRAL ILLINOIS

CITY           SKY/WX    TMP DP  RH WIND       PRES   REMARKS
ROCKFORD       PTSUNNY   73  60  63 W18G31    29.76R
$$

ILZ005-006-012>014-019>023-270000-
NORTHEAST ILLINOIS

CITY           SKY/WX    TMP DP  RH WIND       PRES   REMARKS
CHICAGO-OHARE  MOSUNNY   72  61  68 SW20G28   29.76R
CHICAGO-MIDWAY MOSUNNY   75  62  64 SW23G30   29.78R
AURORA         RAIN      70  62  76 SW14G25   29.79R
WAUKEGAN       NOT AVBL
DUPAGE AIRPORT MOSUNNY   72  63  73 SW24G31   29.77S
WHEELING       MOSUNNY   72  61  68 SW14G22   29.77S
NORTHERLY ISL    N/A     73  59  61 SW15        N/A
$$

LMZ740>746-270000-
SOUTHERN LAKE MICHIGAN

STATION/POSITION SKY/WX   TEMP    WIND        PRES    VSBY  WAVE
                          AIR SEA DIR/SP/G                  HT/PER
                          (F)     (DEG/KT/KT) (MB)    (MI)  (FT/S)
SOUTHERN BUOY              48 38  180/ 14/ 14 1008.0F         2/ 4
HARRISON CRIB              70     200/ 17/ 19   N/A
BURNHAM HARBOR             76     190/ 13/ 19   N/A
CALUMET HARBOR             74     190/ 12/ 19   N/A
BURNS HARBOR               73     210/ 13/ 23 1009.5F
MICHIGAN CITY              74     180/ 18/ 22   N/A
MICHIGAN CITY 6N           65 52  210/ 12/ 17   N/A           2/ 3
ST. JOSEPH                 61 55  240/  8/ 10   N/A           2/ 4
$$

ILZ025>027-034>036-040-047-049-050-058-095>099-270000-
WEST-CENTRAL ILLINOIS

CITY           SKY/WX    TMP DP  RH WIND       PRES   REMARKS
QUINCY         MOSUNNY   77  61  57 SW17G25   29.83F
$$

ILZ028>032-037-038-041>044-048-051>054-059>061-270000-
CENTRAL ILLINOIS

CITY           SKY/WX    TMP DP  RH WIND       PRES   REMARKS
DECATUR        MOSUNNY   75  61  61 SW20      29.89S
PEORIA         MOSUNNY   77  60  55 SW13      29.83F
SPRINGFIELD    PTSUNNY   77  62  59 SW13G22   29.87S
TAYLORVILLE    NOT AVBL
$$

ILZ033-039-045-046-055>057-062-063-270000-
EAST-CENTRAL ILLINOIS

CITY           SKY/WX    TMP DP  RH WIND       PRES   REMARKS
CHAMPAIGN      CLOUDY    71  62  73 SW17G23   29.90S
MATTOON        CLOUDY    74  59  59 SW12      29.91F
$$

ILZ079-100>102-270000-
SOUTHWEST ILLINOIS

CITY           SKY/WX    TMP DP  RH WIND       PRES   REMARKS
ALTON          PTSUNNY   77  66  69 SW9G18    29.90F
BELLEVILLE     MOSUNNY   78  62  59 SW12      29.91S
CAHOKIA*       MOSUNNY   79  60  52 S9        29.90F HX  80
$$

ILZ064>066-069>071-074>076-080>082-084>086-088>090-092>094-270000-
SOUTH-CENTRAL ILLINOIS

CITY           SKY/WX    TMP DP  RH WIND       PRES   REMARKS
CARBONDALE     MOSUNNY   75  62  64 SW17      29.96S
MARION         PTSUNNY   75  64  69 MISG      29.98S
MT. VERNON     PTSUNNY   77  63  61 S14       29.95F
$$

ILZ067-068-072-073-078-083-087-091-270000-
SOUTHEAST ILLINOIS

CITY           SKY/WX    TMP DP  RH WIND       PRES   REMARKS
LAWRENCEVILLE  MOSUNNY   77  58  51 SW20G28   29.95S
$$

ABBREVIATIONS USED IN REMARKS
   TC - TEMPERATURE IN CELSIUS
  WCI - WIND CHILL INDEX
   HX - HEAT INDEX
  VSB - VISIBILITY
$$



USA.gov is the U.S. government's official web portal to all federal, state and local government web resources and services.